Location: Eppenbrunn
(49.1158°N, 7.5601°E)
Time: 08:57:16
(UTC+00:00)

Daily predictions for brighter satellites

Satellite Brightness Start Highest point End
(mag) Time Altitude Azimuth Time Altitude Azimuth Time Altitude Azimuth
IRIDIUM 104 4.4 18:40:05 10° N 18:45:20 84° E 18:50:34 10° S
STARLINK-1240 4.1 18:41:38 10° WNW 18:45:44 56° NNE 18:49:49 10° E
SJ-6B 3.3 18:42:04 10° SE 18:46:02 48° ENE 18:50:02 10° N
Aureole 1 Rocket 4.2 18:39:09 10° S 18:46:11 52° ESE 18:51:43 10° NNE
BREEZE-M DEB (TANK) 4.0 18:39:34 10° WNW 18:47:36 76° SSW 18:50:37 10° ESE
Cosmos 1300 4.4 18:45:16 10° SE 18:47:37 16° E 18:49:59 10° NE
Cosmos 2369 Rocket 3.8 18:44:50 10° NW 18:49:58 36° WSW 18:55:03 10° S
STARLINK-60 3.1 18:47:16 10° SW 18:50:31 60° SSE 18:53:45 10° ENE
STARLINK-1216 4.0 18:46:36 10° WNW 18:50:43 57° NNE 18:54:49 10° E
ARGOS Delta rocket 4.4 18:47:08 10° S 18:52:31 76° W 18:58:02 10° NNW
CZ-2C R/B 4.5 18:50:14 10° NNE 18:54:26 32° E 18:58:33 10° SSE
IRIDIUM 114 4.5 18:49:15 10° N 18:54:30 83° W 18:59:43 10° S
STARLINK-1237 4.0 18:51:35 10° WNW 18:55:41 59° NNE 18:59:47 10° E
Cosmos 2058 Rocket 3.5 18:55:39 10° SSE 18:59:53 41° E 19:04:07 10° NNE
STARLINK-1202 3.9 18:56:35 10° WNW 19:00:43 61° NNE 19:04:42 11° E
Cosmos 1726 Rocket 3.6 18:58:07 10° S 19:02:29 66° E 19:06:55 10° NNE
Cosmos 1461 3.2 18:58:16 10° NW 19:02:48 81° SW 19:07:28 10° SSE
STARLINK-1228 3.0 19:00:03 10° WNW 19:02:58 61° SSW 19:05:31 13° SE
SL-08 RB Rocket 3.8 18:58:33 10° SSE 19:03:03 63° ENE 19:07:38 10° N
Cosmos 921 Rocket 3.0 19:01:04 10° NNW 19:05:13 58° ENE 19:09:21 10° SSE
Cosmos 1703 3.4 19:01:39 10° NNW 19:05:37 80° W 19:09:35 10° S
Meteor 2-17 Rocket 4.5 19:00:02 10° N 19:06:13 76° E 19:12:23 10° SSE
Cosmos 2341 Rocket 4.4 19:00:04 10° N 19:06:14 47° ENE 19:12:21 10° SSE
SL-4 R/B 1.5 19:03:32 10° WSW 19:06:57 86° NNW 19:10:24 10° ENE
Cosmos 1726 3.0 19:03:32 10° SSW 19:07:12 54° WNW 19:10:53 10° N
Cosmos 2184 Rocket 4.3 19:01:47 10° NNW 19:08:03 72° W 19:14:14 10° S
ADEOS Rocket 4.3 19:02:22 10° N 19:08:22 44° WNW 19:13:50 10° SW
Cosmos 1825 Rocket 4.2 19:04:37 10° NNW 19:08:56 58° W 19:13:12 10° S
CZ-4C R/B 4.1 19:03:23 10° NW 19:09:00 29° NNE 19:15:26 10° ENE
Cosmos 407 Rocket 3.4 19:05:31 10° SSW 19:10:37 70° ESE 19:15:44 10° NNE
STARLINK-1246 3.8 19:06:32 10° WNW 19:10:40 66° NNE 19:14:15 13° E
Cosmos 1908 3.2 19:07:03 10° S 19:10:54 82° E 19:14:50 10° NNE
Cosmos 1340 Rocket 2.9 19:07:26 10° S 19:11:22 53° E 19:15:19 10° NNE
RESURS DK-1 4.4 19:08:53 10° N 19:11:35 16° NE 19:14:17 10° E
FREGAT/IRIS 3.1 19:09:11 10° S 19:11:51 55° W 19:14:33 10° NNW
STARLINK-1201 3.0 19:08:46 10° WNW 19:12:02 80° SSW 19:14:33 16° ESE
Cosmos 1328 4.1 19:08:19 10° NNW 19:12:19 70° W 19:16:18 10° S
Cosmos 2228 3.1 19:09:05 10° SSW 19:13:24 82° WNW 19:17:47 10° N
Cosmos 676 Rocket 4.4 19:09:25 10° S 19:14:19 40° ESE 19:19:12 10° NE
STARLINK-1224 3.8 19:11:33 10° WNW 19:15:42 68° NNE 19:19:04 15° E
Cosmos 1943 4.1 19:12:09 10° SW 19:17:42 55° NW 19:23:20 10° NNE
STARLINK-1203 3.7 19:13:41 10° WNW 19:17:54 73° NNE 19:21:13 16° ESE
Cosmos 2058 4.2 19:15:45 10° NNE 19:19:05 23° ENE 19:21:10 16° ESE
MetOp-A 4.1 19:14:40 10° SSE 19:19:59 69° ENE 19:25:20 10° N
STARLINK-1225 3.7 19:16:33 10° WNW 19:20:42 71° NNE 19:23:51 17° ESE
Resurs 01 Rocket 2.1 19:17:44 13° SE 19:21:23 42° ENE 19:25:34 10° N
MOS 1 Rocket 4.0 19:17:03 10° NNE 19:22:13 44° E 19:27:24 10° SSE
STARLINK-52 3.1 19:20:11 10° SW 19:23:18 49° SSE 19:25:57 13° ENE
CZ-2C R/B 3.0 19:18:40 10° NNE 19:23:33 40° E 19:28:26 10° SSE
STARLINK-1230 3.7 19:21:30 10° WNW 19:25:39 74° NNE 19:28:37 18° ESE
Nadezhda 1 Rocket 4.1 19:19:21 10° S 19:25:45 89° W 19:32:07 10° N
BREEZE M DEB (TANK) 3.6 19:23:16 10° SSW 19:26:16 30° SE 19:33:07 10° ENE
Cosmos 962 Rocket 4.4 19:21:03 10° N 19:27:12 69° ENE 19:33:17 10° SSE
SPOT 3 Rocket 3.5 19:23:51 10° SSE 19:29:05 85° ENE 19:34:19 10° NNW
Cosmos 1697 Rocket 4.1 19:24:31 10° N 19:29:05 24° NE 19:32:44 14° E
Cosmos 1023 Rocket 4.4 19:24:24 10° SSW 19:29:33 77° ESE 19:34:42 10° NNE
SL-8 Rocket 4.3 19:23:37 10° N 19:29:47 51° ENE 19:35:13 13° SSE
SL-24 R/B - RUBIN 2 4.3 19:24:25 10° SW 19:30:07 88° SE 19:36:33 10° NE
ARGOS 3.7 19:25:18 10° S 19:30:37 59° W 19:35:57 10° NNW
STARLINK-1243 3.6 19:26:28 10° WNW 19:30:38 78° NNE 19:33:24 20° ESE
Cosmos 2154 Rocket 4.3 19:24:44 10° NNW 19:31:05 75° W 19:37:23 10° S
FALCON 9 DEB 3.2 19:28:11 10° SW 19:31:38 59° SSE 19:34:33 14° ENE
NOSS 3-4 (C) 4.5 19:27:38 10° NW 19:34:25 53° WSW 19:41:51 10° SSE
Iridium 2 4.5 19:33:27 21° SE 19:35:14 31° E 19:38:40 10° NNE
STARLINK-1236 3.6 19:31:28 10° WNW 19:35:37 81° NNE 19:38:11 23° ESE
Cosmos 1954 Rocket 4.0 19:30:44 10° S 19:35:51 58° ESE 19:40:58 10° NNE
Cosmos 2181 Rocket 4.3 19:30:10 10° SSE 19:36:04 46° E 19:41:55 10° NNE
USA 186 3.7 19:33:16 10° SSW 19:36:11 29° W 19:38:58 10° NNW
Cosmos 2366 rocket 4.2 19:37:56 10° N 19:43:56 51° ENE 19:48:11 19° SE
Cosmos 1076 Rocket 4.0 19:40:15 10° N 19:44:21 42° ENE 19:46:20 25° SE
STARLINK-1269 3.6 19:41:25 10° WNW 19:45:34 89° N 19:47:44 27° ESE
Cosmos 1656 4.2 19:42:48 10° NNW 19:48:17 45° NE 19:51:23 24° ESE
Cosmos 1763 Rocket 3.9 19:43:53 10° NNW 19:48:53 45° ENE 19:51:29 25° ESE
STARLINK-1200 3.5 19:46:24 10° WNW 19:50:34 86° SSW 19:52:31 30° ESE
SPOT 1/Viking Rocket 4.4 19:50:06 23° ESE 19:52:27 34° ENE 19:57:09 10° N
STARLINK-1234 4.4 19:52:09 10° W 19:54:51 27° SW 19:55:47 23° S
STARLINK-1209 4.5 19:52:39 10° W 19:55:18 25° SW 19:56:15 21° S
STARLINK-1192 3.5 19:51:22 10° WNW 19:55:32 82° SSW 19:57:18 33° ESE
Cosmos 1455 3.9 19:56:32 18° ENE 19:56:32 18° ENE 19:58:29 10° NE
STARLINK-1233 4.0 19:52:54 10° WNW 19:55:48 34° SW 19:56:38 29° S
STARLINK-1212 4.0 19:53:23 10° WNW 19:56:16 34° SW 19:57:04 29° S
SeaSat 1 4.3 19:52:10 10° NNE 19:56:33 33° NW 20:00:54 10° WSW
STARLINK-1105 4.0 19:53:49 10° WNW 19:56:43 34° SW 19:57:31 29° S
STARLINK-1206 4.0 19:54:18 10° WNW 19:57:09 33° SW 19:57:55 29° S
STARLINK-1247 4.0 19:54:45 10° WNW 19:57:37 33° SW 19:58:22 29° S
Iridium 4 Rocket 3.4 19:53:52 10° N 19:57:52 42° E 19:59:06 33° SE
STARLINK-1227 4.0 19:55:09 10° WNW 19:58:02 33° SW 19:58:48 29° S
STARLINK-1218 4.0 19:55:40 10° WNW 19:58:31 32° SW 19:59:13 29° S
STARLINK-1226 4.0 19:56:06 10° WNW 19:58:57 32° SW 19:59:40 29° S
Cosmos 1980 Rocket 3.7 19:54:48 10° N 19:59:15 23° NE 20:02:02 16° E
STARLINK-1254 4.0 19:56:32 10° WNW 19:59:24 32° SW 20:00:06 28° S
USA 234 3.8 19:53:48 10° ENE 19:59:31 31° SE 20:05:12 10° S
STARLINK-1215 4.0 19:57:01 10° WNW 19:59:52 32° SW 20:00:32 28° S
Cosmos 1174 4.1 19:56:11 10° NW 20:00:17 80° NE 20:02:39 30° SE
STARLINK-1231 4.0 19:57:29 10° W 20:00:18 31° SW 20:00:58 28° S
STARLINK-1244 3.6 19:56:27 10° WNW 20:00:36 78° SSW 20:02:10 37° SE
STARLINK-1232 4.1 19:58:24 10° W 20:01:13 31° SW 20:01:50 28° SSW
Cosmos 1892 3.1 19:57:29 10° N 20:01:16 47° ENE 20:02:13 38° ESE
STARLINK-1217 4.1 19:58:51 10° W 20:01:40 31° SW 20:02:16 28° SSW
Abrixas rocket 3.4 19:59:25 10° W 20:01:56 25° SSW 20:02:07 25° SSW
STARLINK-1208 4.1 19:59:16 10° W 20:02:06 31° SW 20:02:43 28° SSW
STARLINK-1229 4.1 19:59:45 10° W 20:02:33 30° SW 20:03:07 28° SSW
STARLINK-1271 4.1 20:00:12 10° W 20:03:00 30° SW 20:03:34 28° SSW
STARLINK-1270 4.1 20:00:40 10° W 20:03:27 30° SW 20:04:00 28° SSW
STARLINK-1154 4.1 20:01:07 10° W 20:03:54 30° SW 20:04:26 28° SSW
H-2A R/B 4.1 20:00:06 10° SSW 20:04:22 26° W 20:08:34 10° NW
STARLINK-1197 4.1 20:02:02 10° W 20:04:48 29° SW 20:05:18 28° SSW
STARLINK-1189 4.2 20:02:28 10° W 20:05:14 29° SW 20:05:43 27° SSW
ATLAS 5 CENTAUR R/B 2.2 20:01:18 10° WSW 20:05:29 57° NW 20:10:16 10° NE
STARLINK-1138 3.6 20:01:21 10° WNW 20:05:29 73° SSW 20:06:52 40° SE
STARLINK-1198 4.2 20:02:56 10° W 20:05:42 29° SW 20:06:10 27° SSW
Cosmos 1825 3.6 20:02:42 10° NNE 20:05:39 22° ENE 20:05:39 22° ENE
ATLAS 2AS CENTAUR R/B 4.2 19:59:34 10° NW 20:06:04 33° WSW 20:12:05 10° S
STARLINK-1188 4.2 20:03:22 10° W 20:06:08 28° SW 20:06:35 27° SSW
STARLINK-1187 4.4 20:04:30 10° W 20:07:12 26° SW 20:07:42 24° SSW
STARLINK-1199 4.2 20:05:20 10° W 20:08:06 28° SW 20:08:31 27° SSW
Cosmos-2242 4.1 20:08:41 27° E 20:08:41 27° E 20:12:04 10° NNE
STARLINK-1191 4.3 20:05:48 10° W 20:08:32 28° SW 20:08:56 27° SSW
STARLINK-1210 4.3 20:06:15 10° W 20:08:59 27° SW 20:09:23 27° SSW
COSMOS 2455 3.6 20:03:39 10° NW 20:09:24 47° WSW 20:13:56 16° S
STARLINK-1221 4.3 20:06:42 10° W 20:09:27 27° SW 20:09:49 26° SSW
STARLINK-1219 4.3 20:07:09 10° W 20:09:53 27° SW 20:10:15 26° SSW
STARLINK-1222 4.3 20:07:36 10° W 20:10:20 27° SW 20:10:40 26° SSW
STARLINK-1143 3.6 20:06:20 10° WNW 20:10:27 69° SSW 20:11:39 43° SE
STARLINK-1211 4.3 20:08:05 10° W 20:10:48 27° SW 20:11:07 26° SSW
STARLINK-1214 4.3 20:08:32 10° W 20:11:14 26° SW 20:11:33 26° SSW
STARLINK-1245 4.3 20:09:01 10° W 20:11:41 26° SW 20:11:57 26° SSW
STARLINK-1238 4.4 20:09:26 10° W 20:12:07 26° SW 20:12:25 26° SSW
Cosmos 1140 Rocket 4.3 20:07:47 10° SW 20:12:49 51° WNW 20:17:53 10° NNE
STARLINK-1205 4.4 20:10:23 10° W 20:13:02 25° SW 20:13:16 25° SSW
STARLINK-1204 4.4 20:10:51 10° W 20:13:29 25° SW 20:13:42 25° SSW
Cosmos 1356 Rocket 4.2 20:13:46 33° E 20:13:46 33° E 20:17:20 10° NNE
ERBS 2.3 20:10:34 10° WNW 20:13:56 67° SW 20:14:20 59° S
STARLINK-1241 3.7 20:11:21 10° WNW 20:15:28 65° SSW 20:16:28 46° SSE
STARLINK-29 3.2 20:15:49 10° WSW 20:19:01 66° NNW 20:19:44 47° NE
STARLINK-1239 3.8 20:16:19 10° WNW 20:20:25 61° SSW 20:21:14 49° SSE
SAR-Lupe-2 3.4 20:16:59 10° NNE 20:20:36 76° ESE 20:21:14 56° S
IGS 5A 3.6 20:20:27 48° ESE 20:21:13 57° ENE 20:25:18 10° N
ATLAS CENTAUR R/B 2.2 20:17:59 10° NNW 20:21:34 33° NE 20:22:10 31° ENE
Cosmos 1300 3.8 20:19:14 10° SSW 20:22:54 45° WNW 20:26:37 10° N
Spot 2 Rocket 3.4 20:22:15 34° SSE 20:24:34 87° ENE 20:29:42 10° NNW
Cosmos 1821 Rocket 4.5 20:18:27 10° N 20:24:34 45° ENE 20:26:40 34° ESE
USA 32 4.2 20:19:54 10° N 20:25:02 52° E 20:26:23 41° SE
STARLINK-1240 3.8 20:21:18 10° WNW 20:25:23 57° SSW 20:26:01 50° S
STARLINK-60 4.0 20:23:47 10° W 20:26:57 45° N 20:27:47 36° NNE
Cosmos 1850 Rocket 3.9 20:24:21 21° S 20:27:47 66° ESE 20:32:56 10° NNE
Cosmos 841 Rocket 3.8 20:22:56 10° NNW 20:28:08 54° ENE 20:29:32 41° ESE
In-Cosmos 22 Rocket 4.5 20:23:18 10° NNW 20:29:07 70° W 20:32:45 24° S
STARLINK-1216 3.9 20:26:17 10° WNW 20:30:20 53° SSW 20:30:47 50° S
Terra 2.7 20:29:53 32° E 20:30:27 33° ENE 20:34:42 10° N
Cosmos 2278 4.4 20:25:27 10° NNW 20:30:47 40° NE 20:32:29 32° E
SPOT 5 3.1 20:31:40 41° E 20:31:57 41° ENE 20:36:02 10° N
Cosmos 2082 Rocket 3.8 20:34:09 18° ENE 20:34:09 18° ENE 20:36:17 10° NE
SL-08 R/B 4.4 20:27:48 10° N 20:34:00 79° E 20:36:44 36° SSE
Meteor 2-10 Rocket 3.7 20:33:51 45° SE 20:34:45 50° E 20:40:01 10° NNE
MetOp-B 4.3 20:32:14 29° S 20:35:02 69° WSW 20:40:25 10° NNW
STARLINK-1237 4.0 20:31:15 10° WNW 20:35:16 49° SW 20:35:33 48° SSW
Cosmos 1833 Rocket 3.3 20:39:02 36° E 20:39:02 36° E 20:43:32 10° NE
CARTOSAT-1 3.7 20:39:31 52° E 20:39:41 52° ENE 20:43:55 10° N
STARLINK-1202 4.1 20:36:16 10° WNW 20:40:15 46° SW 20:40:21 46° SSW
Cosmos 468 Rocket 4.3 20:35:32 10° NNW 20:40:38 62° WSW 20:42:30 37° S
SL-4 R/B 2.2 20:43:19 10° WNW 20:46:33 54° N 20:46:33 54° N
Cosmos 1408 2.7 20:43:36 10° N 20:46:55 72° N 20:46:55 72° N
ERS-1 Rocket 2.9 20:47:01 57° SE 20:47:56 74° ENE 20:52:58 10° N
STARLINK-1246 4.4 20:46:16 10° WNW 20:49:54 39° SW 20:49:54 39° SW
RESURS DK-1 2.2 20:46:02 10° NNW 20:50:12 84° WSW 20:50:15 84° SW
Cosmos 1766 Rocket 3.5 20:48:24 10° N 20:52:50 67° ENE 20:52:50 67° ENE
Cosmos 1570 Rocket 4.0 20:47:59 10° NNW 20:53:23 83° WSW 20:54:32 56° S
BREEZE M DEB (TANK) 2.9 20:47:51 10° WSW 20:53:25 70° WSW 20:53:25 70° WSW
Okean 3 Rocket 3.4 20:49:58 10° N 20:54:26 82° E 20:54:34 81° ESE
Cosmos 2058 4.2 20:52:19 10° NNW 20:56:06 36° W 20:57:24 28° SW
Resurs 01 Rocket 3.6 20:55:17 14° SW 20:58:03 23° W 21:01:38 10° NW
COSMOS 2406 3.1 20:54:52 27° SSW 20:58:08 83° ESE 21:03:53 10° NNE
CZ-4C R/B 3.1 20:51:55 10° NW 20:58:50 65° NE 21:01:49 40° ESE
CZ-2C R/B 4.2 20:59:10 10° N 21:03:47 33° WNW 21:08:22 10° SW
Cosmos 2151 3.2 21:03:27 10° NNW 21:07:34 65° W 21:07:34 65° W
Cosmos 1697 Rocket 2.6 21:08:01 10° NNW 21:13:44 80° WSW 21:14:29 67° S
Cosmos 2369 3.6 21:08:10 10° NNW 21:13:51 81° WSW 21:14:34 68° S
Cosmos 1455 3.6 21:31:25 35° WNW 21:31:25 35° WNW 21:34:39 10° N
Cosmos 1408 Rocket 4.0 21:27:42 10° NNW 21:31:22 59° NNW 21:31:22 59° NNW
Cosmos 540 Rocket 3.9 21:29:15 10° NNW 21:34:15 52° WSW 21:34:20 52° WSW
Cosmos 1743 Rocket 4.5 21:30:28 10° N 21:33:44 43° NNE 21:33:44 43° NNE
SL-16 R/B 3.2 21:30:27 10° NNW 21:35:37 34° NE 21:36:11 34° ENE
Cosmos 2360 Rocket 4.0 21:31:46 10° N 21:35:53 20° NE 21:37:32 18° ENE
Cosmos 1825 4.0 21:37:56 10° NNW 21:40:28 28° WNW 21:40:28 28° WNW
Cosmos 2322 Rocket 3.3 21:37:29 10° NNW 21:42:34 33° NE 21:43:04 32° ENE
USA 234 3.1 21:36:30 10° ENE 21:43:04 88° SE 21:49:39 10° WSW
Nadezhda 3 Rocket 4.3 21:41:26 45° SW 21:43:16 64° WNW 21:49:32 10° N
Cosmos 1980 Rocket 2.1 21:38:18 10° NNW 21:43:48 82° W 21:43:48 82° W
Cosmos 2221 4.1 21:46:37 29° NNE 21:46:37 29° NNE 21:48:53 10° NNE
Cosmos-2242 4.4 21:45:30 32° W 21:45:51 33° WNW 21:49:49 10° N
Cosmos 1535 Rocket 4.3 21:40:20 10° N 21:46:32 82° W 21:46:59 76° SSW
ASTEX 1 3.7 21:50:00 66° NNW 21:50:00 66° NNW 21:54:19 10° N
ATLAS 5 CENTAUR R/B 4.3 21:47:47 10° WNW 21:51:12 20° NNW 21:55:00 10° NNE
Meteor 2-3 Rocket 3.9 21:49:37 10° NNW 21:55:18 64° W 21:55:21 63° W
ATLAS CENTAUR R/B 3.6 21:57:00 10° NW 21:58:21 18° WNW 21:58:21 18° WNW
Cosmos 1727 Rocket 4.4 22:05:51 51° ENE 22:05:51 51° ENE 22:11:14 10° NNE
Mayak 0.4 22:02:45 10° N 22:04:58 31° N 22:04:58 31° N
Terra 3.1 22:08:45 34° W 22:08:45 34° W 22:12:32 10° NNW
Cosmos 1934 Rocket 4.3 22:05:00 10° NNW 22:11:04 55° W 22:11:27 54° WSW
Cosmos 2082 Rocket 2.4 22:15:56 66° NW 22:15:56 66° NW 22:21:16 10° NNE
Cosmos 2100 Rocket 4.4 22:15:01 10° N 22:20:40 54° ENE 22:20:40 54° ENE
Cosmos 1833 Rocket 3.7 22:20:38 34° W 22:22:16 43° NW 22:27:39 10° NNE
Cosmos 2173 Rocket 4.4 22:20:53 10° N 22:26:16 53° NE 22:26:16 53° NE
Cosmos 1605 Rocket 4.2 22:23:29 10° NNW 22:29:21 60° W 22:29:21 60° W
Cosmos 2219 Rocket 4.2 22:28:55 10° N 22:33:01 20° NE 22:34:42 18° ENE
ALOS 2 4.3 22:36:50 31° N 22:36:50 31° N 22:39:14 10° N
Cosmos 2344 4.4 22:26:07 10° NW 22:35:39 70° SW 22:38:35 55° S
CZ-4C R/B 3.6 22:40:38 10° NW 22:46:59 42° WSW 22:46:59 42° WSW
COSMOS 2428 4.2 22:57:51 10° NNW 23:02:43 28° NE 23:03:37 26° ENE
SL-16 R/B 3.4 23:14:28 10° NW 23:18:02 36° WNW 23:18:02 36° WNW
Cosmos 2360 Rocket 2.9 23:15:08 10° NNW 23:19:17 51° NNW 23:19:17 51° NNW
USA 234 3.9 23:19:34 10° ENE 23:25:51 51° NNW 23:32:07 10° W
Cosmos 2322 Rocket 3.4 23:21:24 10° NW 23:24:52 35° WNW 23:24:52 35° WNW
Cosmos 1980 Rocket 4.5 23:24:10 10° WNW 23:25:34 13° W 23:25:34 13° W
Cosmos 2061 Rocket 4.3 23:25:32 10° NNW 23:30:49 62° NW 23:30:49 62° NW
MOS 1-B Rocket 4.2 23:34:24 10° NNE 23:40:21 80° NNW 23:40:21 80° NNW
Mayak 1.7 23:41:21 10° NW 23:41:32 10° NW 23:41:32 10° NW
Cosmos 2333 Rocket 2.9 23:37:35 10° NNW 23:42:25 49° NNE 23:42:25 49° NNE
Cosmos 2237 Rocket 4.1 23:39:16 10° NNW 23:43:52 25° NE 23:46:25 18° E
Cosmos 2233 Rocket 4.2 23:42:22 10° N 23:47:50 67° NNE 23:47:50 67° NNE
SL-16 R/B 3.9 23:48:42 27° E 23:50:26 31° ENE 23:55:45 10° N
